Wind_Speed
44 46 44 37 39 41 41 40 36 31 30 32 32 30 38 51 62 51 50 45 42 37 37 41 38 43 43 41 41 42 43 44 44 42 42 42 40 40 40 41 40 40 39 41
42 41 41 43 44 44 43 41 38 32 33 36 32 33 23 37 53 56 49 47 39 40 38 40 41 42 41 40 39 42 41 44 44 44 45 44 43 41 43 43 42 42 41 42
40 38 41 45 44 44 43 43 41 39 39 40 39 38 25 25 35 39 37 33 44 37 40 40 40 39 39 39 38 39 43 44 45 45 47 46 44 45 45 46 43 43 43 43
46 43 39 39 40 43 43 43 43 41 42 43 41 45 32 26 31 34 31 33 39 37 38 39 38 36 35 36 38 41 43 44 45 48 47 46 47 47 46 45 43 43 44 44
48 47 45 42 40 41 42 43 45 44 44 45 43 48 36 28 27 34 36 38 35 35 36 36 39 40 40 41 40 41 43 45 47 47 46 46 46 47 47 44 44 43 44 44
48 49 47 47 46 45 44 43 44 45 46 45 42 44 32 34 27 30 37 37 37 34 31 32 34 35 36 37 40 44 45 44 45 43 43 45 47 47 45 44 44 44 44 44
47 47 47 47 48 48 48 46 46 46 47 43 42 42 28 38 30 30 32 37 37 38 39 38 38 37 37 37 40 41 43 43 43 43 44 46 46 45 44 43 44 43 43 43
45 46 45 46 45 45 47 50 51 52 50 45 45 42 32 36 37 33 34 34 37 40 40 38 38 39 39 40 41 43 42 43 42 42 44 45 44 44 43 44 43 43 43 43
56 57 54 50 47 45 47 49 47 49 50 51 51 47 40 38 37 34 31 34 36 38 39 38 37 36 35 37 39 41 43 43 43 44 45 44 42 42 43 43 43 43 43 43
59 61 58 53 52 52 53 49 46 47 50 52 53 50 47 41 40 38 34 33 34 36 37 37 36 35 36 37 39 41 42 42 44 45 44 42 42 42 42 43 41 41 42 43
66 67 68 63 60 54 50 52 49 48 50 53 53 50 44 44 42 40 40 36 32 34 36 38 39 40 39 38 39 40 42 43 43 44 43 42 42 42 42 40 40 41 41 42
66 69 71 72 69 64 60 58 58 57 54 51 49 49 46 43 43 41 35 32 30 27 27 30 34 36 38 40 41 41 41 40 40 39 38 39 41 41 40 38 39 40 41 42
67 65 65 71 73 73 72 67 63 59 56 55 54 53 54 49 45 41 39 35 35 33 31 30 30 33 35 36 37 37 35 35 34 35 38 40 40 39 38 39 40 40 42 44
67 70 59 61 60 57 59 64 66 62 62 61 61 55 57 52 47 46 48 43 41 38 35 30 30 32 35 37 39 39 38 38 36 37 39 41 41 42 42 41 41 42 45 45
78 78 81 74 63 59 60 63 65 69 66 68 63 62 59 57 56 55 53 49 48 45 39 38 39 40 41 40 41 41 41 41 42 43 43 44 46 46 44 43 44 46 47 46
77 75 78 84 81 77 73 66 59 60 66 70 70 73 66 62 61 58 57 58 57 54 52 51 48 47 45 45 47 48 49 48 47 46 42 43 45 48 46 46 47 48 45 45
73 73 77 80 82 83 83 77 73 71 66 63 66 61 57 57 59 61 62 64 66 64 61 57 52 50 50 51 54 54 54 54 55 51 47 44 46 49 48 49 49 46 45 45
51 68 73 73 74 80 84 81 75 72 70 70 66 63 66 65 64 65 67 69 69 70 66 64 61 59 57 57 56 55 57 57 57 56 54 52 48 51 51 51 49 47 46 46
73 55 49 52 53 61 63 73 74 72 68 66 65 65 64 63 64 66 66 68 70 70 69 66 66 64 63 63 63 62 61 61 62 61 60 55 50 54 55 52 50 50 50 49
63 69 65 63 55 60 56 59 63 66 73 74 74 73 72 73 68 64 67 69 69 68 69 68 67 66 65 64 62 62 61 61 60 60 59 58 56 59 56 55 54 53 53 51
65 64 65 73 75 77 73 68 74 77 79 78 80 81 76 70 73 74 73 69 68 67 68 66 63 62 63 60 60 59 59 59 60 59 57 58 60 61 58 58 56 52 51 50
65 61 53 56 69 67 66 66 67 73 73 72 67 69 75 78 77 77 78 79 80 78 75 71 68 67 66 65 63 61 59 58 57 57 56 55 54 52 52 53 52 52 52 53
62 68 71 63 59 57 57 61 67 73 78 79 77 77 76 77 79 79 79 78 79 82 83 84 82 78 76 73 70 69 66 62 58 57 58 58 58 58 58 57 58 57 56 56
66 68 69 68 70 66 59 53 58 63 62 65 66 74 79 82 81 79 81 82 83 85 82 80 79 78 78 78 76 74 68 64 63 60 59 60 59 58 59 57 56 56 57 54
52 61 64 70 75 77 77 72 64 54 54 51 60 68 67 69 73 75 80 84 84 83 83 81 80 77 74 69 70 70 66 65 61 59 61 63 63 63 57 58 58 56 57 57
40 42 49 55 60 65 65 66 73 79 82 80 71 64 69 71 68 72 74 76 79 79 82 82 83 81 73 68 68 67 68 65 63 63 67 67 66 66 61 59 59 59 60 62
Wind_Direction
253 252 253 256 255 252 252 256 260 263 264 264 268 268 252 242 249 244 246 245 246 239 242 244 247 250 247 246 248 243 241 241 243 249 253 257 263 269 275 280 285 287 290 281
256 258 255 252 252 254 256 256 257 254 255 264 264 265 272 254 251 249 238 239 240 240 244 250 250 248 249 247 247 246 244 245 245 250 255 260 264 269 273 279 284 285 288 285
258 257 253 252 251 253 255 257 256 252 249 253 260 264 259 243 243 243 252 244 246 251 244 249 249 249 247 248 247 245 245 244 247 251 256 261 266 269 274 279 281 283 285 286
255 254 256 255 254 253 253 256 257 255 254 254 257 267 253 249 241 243 245 246 244 244 249 250 256 255 256 250 246 242 243 244 248 252 256 262 266 270 274 277 279 281 284 284
254 253 251 251 252 250 251 248 251 253 254 256 256 260 263 250 248 239 243 244 244 245 249 249 249 250 250 250 248 243 244 247 250 254 258 263 267 268 271 274 277 280 282 280
252 253 252 251 251 250 251 251 251 252 254 256 259 257 257 260 249 241 243 248 247 250 252 255 258 259 259 258 257 255 252 252 253 257 259 260 262 266 270 272 275 278 280 277
253 252 251 249 249 250 251 252 252 252 252 258 260 259 268 267 258 253 242 246 249 251 249 250 252 254 256 255 254 254 253 254 253 254 257 258 261 265 268 271 274 277 277 275
254 251 251 251 251 251 249 250 251 253 254 255 256 259 258 267 265 258 255 251 247 249 251 252 252 253 253 254 254 255 255 253 253 255 255 256 259 264 267 270 274 275 275 276
254 253 252 251 250 249 249 250 252 254 255 255 255 256 256 260 265 264 254 252 251 250 252 254 255 256 255 254 253 252 252 252 254 254 255 258 260 263 266 271 273 273 274 276
251 252 250 249 248 248 250 249 248 249 252 254 258 258 259 261 261 263 260 251 250 252 253 255 257 257 255 254 252 251 253 253 253 253 255 257 259 265 269 270 271 273 276 280
250 251 251 250 248 248 248 250 250 251 249 253 256 256 258 259 259 264 264 263 257 253 254 256 257 257 257 254 254 252 252 251 250 251 255 259 262 263 265 267 270 273 277 279
252 250 249 251 250 248 247 248 248 246 248 251 256 255 260 261 259 260 262 265 264 253 246 246 249 252 251 249 249 248 249 250 251 253 254 256 258 261 263 267 269 272 275 279
254 256 252 248 248 251 250 249 250 251 251 250 252 255 252 252 259 262 262 262 262 263 254 246 242 242 243 244 248 251 250 251 250 250 252 256 258 261 264 267 270 274 278 282
239 241 238 243 245 247 252 252 250 249 248 249 249 251 255 256 257 259 259 259 257 258 257 249 242 240 241 241 244 248 250 252 251 252 253 255 259 263 266 270 275 277 279 282
242 248 247 241 239 243 245 243 244 244 245 244 249 249 249 253 253 250 252 255 256 257 253 249 245 245 243 241 242 244 246 248 249 249 251 254 259 261 267 272 274 276 279 284
246 248 248 249 241 244 243 241 239 242 243 243 244 244 245 246 249 253 254 253 254 254 252 251 246 245 245 243 241 241 244 246 249 250 248 251 256 263 267 270 273 277 281 282
242 244 246 249 251 253 252 243 243 244 243 246 245 245 248 249 249 247 248 251 251 250 252 251 249 248 249 250 252 252 252 254 255 255 256 253 255 261 266 269 273 277 279 281
242 236 245 251 248 251 256 252 251 253 250 247 247 244 244 244 244 246 247 249 251 252 251 253 254 252 249 249 249 251 256 259 260 261 263 262 263 266 266 268 271 275 277 279
235 235 235 234 234 245 249 251 254 255 251 249 247 242 240 241 244 248 249 248 248 250 252 251 251 251 253 253 252 251 253 257 262 266 268 271 268 265 264 265 269 272 274 279
228 231 235 235 235 235 235 238 242 246 246 248 247 246 245 242 244 248 250 250 250 250 251 253 254 254 251 251 252 253 254 255 258 261 263 263 259 259 261 264 265 268 272 273
234 236 239 238 243 246 248 247 248 247 251 250 251 252 253 254 255 252 247 246 249 250 251 249 249 252 253 252 252 252 252 253 253 255 259 259 259 261 261 262 263 264 267 269
228 230 228 233 239 244 248 248 244 247 247 250 252 255 256 255 253 253 255 252 251 251 252 251 253 252 251 253 253 254 254 256 256 254 255 258 259 261 264 264 264 265 266 267
236 236 240 236 235 240 245 246 247 255 255 251 251 248 249 252 252 252 252 253 253 254 256 257 257 257 259 258 256 257 257 256 256 252 252 252 255 258 262 264 266 265 264 267
242 240 237 238 236 239 238 239 241 243 249 254 256 253 252 251 251 252 253 253 253 252 253 255 257 259 260 260 261 261 260 255 253 252 255 259 258 256 257 258 261 262 264 266
248 247 245 246 247 250 246 241 238 239 244 250 254 252 256 255 253 252 253 254 254 255 254 254 256 258 259 259 259 257 254 245 245 245 245 246 246 247 248 252 254 257 260 264
241 246 246 247 247 249 249 249 251 245 244 247 247 249 252 246 246 249 252 254 254 255 255 253 255 256 252 246 247 249 242 234 247 246 247 244 245 243 246 252 257 261 264 267
Height
5700 5701 5704 5707 5705 5703 5703 5704 5705 5706 5705 5704 5707 5707 5712 5712 5713 5720 5723 5725 5727 5731 5731 5732 5734 5736 5738 5740 5741 5742 5745 5747 5747 5750 5750 5750 5751 5753 5752 5751 5750 5749 5748 5747
5690 5692 5695 5694 5693 5694 5695 5696 5698 5700 5697 5695 5697 5699 5701 5702 5703 5707 5712 5714 5719 5721 5722 5724 5726 5726 5729 5732 5733 5734 5736 5738 5739 5741 5741 5743 5743 5744 5743 5742 5742 5741 5739 5738
5681 5683 5683 5682 5684 5684 5686 5687 5688 5689 5689 5688 5687 5691 5695 5696 5696 5698 5701 5705 5708 5712 5714 5715 5716 5718 5719 5723 5725 5726 5728 5729 5731 5731 5732 5735 5736 5735 5734 5733 5733 5732 5731 5729
5668 5672 5674 5674 5674 5674 5676 5678 5678 5678 5678 5680 5681 5675 5687 5689 5690 5691 5695 5697 5700 5702 5704 5706 5707 5710 5713 5714 5715 5716 5718 5719 5721 5722 5725 5726 5726 5726 5724 5724 5723 5722 5721 5720
5659 5660 5662 5664 5666 5665 5666 5667 5667 5667 5669 5670 5673 5669 5674 5683 5684 5687 5688 5688 5691 5694 5695 5698 5700 5702 5704 5704 5707 5707 5708 5709 5712 5714 5715 5716 5716 5716 5714 5714 5714 5713 5712 5711
5645 5647 5650 5653 5655 5655 5656 5656 5657 5657 5658 5659 5662 5665 5663 5670 5678 5679 5679 5681 5683 5685 5686 5689 5690 5691 5694 5696 5697 5698 5700 5701 5703 5705 5705 5706 5705 5705 5705 5704 5704 5703 5702 5700
5634 5635 5636 5639 5641 5643 5645 5647 5647 5647 5646 5649 5652 5655 5657 5656 5666 5669 5672 5673 5675 5677 5678 5680 5681 5683 5684 5686 5688 5689 5690 5692 5693 5694 5695 5695 5695 5695 5695 5694 5693 5693 5692 5690
5620 5623 5624 5628 5628 5631 5633 5634 5635 5633 5636 5641 5641 5643 5650 5649 5651 5658 5661 5664 5665 5667 5668 5669 5671 5673 5674 5676 5677 5678 5680 5681 5682 5684 5684 5684 5684 5685 5684 5684 5684 5683 5682 5680
5605 5608 5612 5614 5615 5618 5619 5621 5626 5625 5626 5626 5628 5634 5640 5641 5642 5646 5650 5653 5654 5656 5658 5659 5660 5662 5663 5665 5666 5668 5668 5670 5672 5672 5673 5674 5674 5674 5674 5675 5674 5673 5672 5670
5590 5591 5596 5599 5601 5603 5605 5611 5611 5612 5613 5614 5617 5622 5627 5632 5634 5635 5637 5640 5644 5646 5648 5648 5650 5651 5652 5653 5655 5656 5657 5659 5660 5661 5662 5663 5664 5664 5664 5665 5664 5663 5662 5661
5572 5573 5578 5583 5587 5591 5594 5596 5599 5601 5602 5602 5606 5612 5618 5620 5623 5625 5626 5628 5632 5635 5636 5638 5638 5640 5641 5643 5644 5645 5647 5648 5649 5650 5651 5653 5653 5654 5654 5654 5653 5653 5653 5652
5553 5552 5558 5564 5568 5572 5577 5582 5583 5584 5590 5593 5598 5604 5606 5609 5611 5612 5616 5618 5619 5619 5622 5624 5626 5629 5630 5632 5633 5635 5636 5636 5638 5640 5641 5643 5643 5643 5643 5644 5643 5643 5642 5641
5537 5533 5538 5542 5549 5554 5558 5565 5569 5574 5576 5581 5586 5594 5591 5597 5600 5603 5604 5606 5607 5609 5611 5613 5615 5617 5619 5621 5622 5623 5624 5626 5628 5630 5631 5631 5632 5632 5633 5633 5633 5633 5631 5630
5516 5513 5517 5523 5538 5541 5542 5549 5554 5555 5556 5568 5569 5583 5581 5587 5592 5592 5590 5591 5593 5595 5599 5602 5605 5606 5607 5609 5611 5613 5615 5616 5618 5619 5620 5620 5621 5621 5622 5623 5623 5622 5620 5620
5489 5489 5500 5511 5519 5520 5522 5528 5530 5532 5543 5539 5562 5561 5570 5572 5573 5573 5572 5575 5580 5581 5586 5591 5593 5593 5593 5596 5599 5601 5603 5604 5605 5607 5609 5610 5610 5611 5612 5613 5612 5611 5610 5609
5471 5474 5481 5485 5500 5501 5499 5507 5513 5517 5523 5521 5537 5535 5551 5555 5556 5556 5556 5557 5563 5568 5571 5573 5576 5579 5581 5582 5582 5584 5585 5588 5590 5593 5597 5599 5600 5600 5601 5601 5600 5599 5599 5597
5451 5457 5461 5461 5482 5478 5464 5487 5500 5500 5507 5512 5512 5532 5534 5536 5536 5533 5537 5539 5542 5547 5552 5556 5561 5566 5569 5571 5572 5574 5575 5577 5578 5582 5585 5588 5589 5589 5590 5589 5588 5588 5587 5585
5433 5440 5445 5446 5458 5442 5453 5476 5480 5479 5489 5488 5491 5502 5506 5510 5512 5515 5519 5525 5529 5531 5538 5543 5546 5549 5553 5556 5558 5560 5562 5564 5566 5570 5573 5576 5579 5578 5577 5576 5575 5575 5573 5573
5421 5428 5429 5432 5436 5437 5439 5451 5459 5460 5465 5465 5470 5479 5488 5492 5495 5496 5498 5502 5509 5512 5516 5521 5525 5529 5533 5537 5541 5546 5549 5551 5553 5556 5558 5561 5563 5561 5561 5562 5562 5562 5560 5560
5404 5410 5414 5420 5418 5419 5427 5433 5439 5441 5439 5445 5452 5457 5465 5473 5475 5479 5481 5485 5489 5495 5499 5502 5506 5510 5515 5518 5522 5527 5530 5533 5537 5539 5541 5542 5543 5542 5545 5546 5547 5547 5547 5546
5386 5392 5395 5401 5400 5401 5405 5414 5420 5422 5419 5425 5431 5436 5443 5450 5455 5461 5464 5467 5470 5474 5478 5483 5487 5491 5494 5498 5502 5506 5509 5512 5516 5519 5523 5526 5527 5528 5530 5531 5532 5532 5532 5532
5367 5372 5376 5378 5380 5383 5386 5395 5401 5395 5395 5403 5411 5416 5421 5427 5434 5439 5443 5447 5450 5453 5457 5462 5465 5470 5475 5479 5483 5487 5490 5494 5498 5501 5505 5508 5510 5514 5515 5517 5517 5517 5518 5518
5352 5352 5356 5362 5361 5360 5368 5371 5375 5373 5375 5383 5391 5397 5399 5403 5410 5417 5422 5425 5430 5434 5437 5441 5447 5451 5454 5458 5464 5468 5472 5476 5480 5484 5487 5489 5492 5496 5498 5499 5501 5503 5503 5504
5332 5335 5339 5344 5344 5342 5352 5354 5357 5357 5359 5361 5365 5371 5376 5380 5384 5391 5397 5401 5405 5410 5415 5420 5425 5429 5432 5436 5441 5447 5451 5456 5460 5464 5468 5471 5474 5477 5479 5481 5484 5487 5488 5489
5315 5318 5324 5324 5325 5324 5332 5338 5340 5339 5341 5342 5344 5346 5350 5356 5360 5366 5372 5378 5383 5387 5391 5397 5403 5408 5412 5415 5418 5425 5431 5435 5439 5444 5448 5451 5455 5458 5460 5464 5467 5470 5472 5473
5303 5305 5306 5308 5309 5307 5314 5316 5319 5322 5324 5325 5327 5329 5331 5333 5337 5341 5347 5353 5359 5364 5369 5375 5381 5386 5390 5396 5401 5404 5413 5414 5419 5426 5429 5431 5436 5438 5441 5446 5449 5451 5454 5456